Location: Unspecified
(0.0000°N, 0.0000°E)
Time: 19:18:00
(UTC+00:00)

Courier 1B - Pass Details

Date: 03 October 2023
Orbit: 962 x 1208 km, 28.3° (Epoch: 28 November)

Event Time Altitude Azimuth Distance (km) Brightness Sun altitude
Rises 21:45:09 0° 251° (WSW) 3,958 11.1 -58.8°
Enters shadow 21:46:48 - 243° (WSW) 3,572 10.8 -59.2°
Reaches altitude 10° 21:50:44 10° 217° (SW) 2,927 - -60.2°
Maximum altitude 21:52:36 11° 202° (SSW) 2,823 - -60.6°
Drops below altitude 10° 21:54:28 10° 186° (S) 2,878 - -61.1°
Sets 21:59:48 0° 152° (SSE) 3,763 - -62.4°
